User: anonymous   Login
Location: Plum
(40.5000°N, 79.7500°W)
Time: 05:01:37
(UTC-05:00)
Language:

Cosmos 1825 - Orbit

View from above orbital plane
View from above orbital plane
View from above satellite
View from above satellite

Ground track
Ground track

The orbit data is extracted from the following two-line orbital elements,

1 17566U 87024A   17016.75618089  .00000501  00000-0  22777-4 0  9990
2 17566  82.5048  80.2607 0004755  43.0513 317.1092 15.18381694630866
Epoch (UTC): 16 January 2017 18:08:54
Eccentricity: 0.0004755
inclination: 82.5048°
perigee height: 507 km
apogee height: 514 km
right ascension of ascending node: 80.2607°
argument of perigee: 43.0513°
revolutions per day: 15.18381694
mean anomaly at epoch: 317.1092°
orbit number at epoch: 63086

The dashed part of the orbit path shows where the satellite is in the earth's shadow,  

DLR